When you browse on this site, cookies collect data to enhance your experience and personalize the content and advertising you see.
Visit our Privacy Policy to learn more. By continuing to use the site, you agree to this use of cookies and data.
  • Em Portugal
  • Lista de países
  • Para 7 dias
  • Temperatura da água
  • Mapas de satélite
  • Mapa do tempo
  • Widgets de tempo
  • user-avatar
    Iniciar Sessão

    Previsão horária em Faro

    Hoje, 18 Novembro, Domingo

    Tempo Temperatura Precipitação Vento Pressão Humidade
    00:00 +16°C° 1.5 mm 11 m/s 751 mmHg 85%
    01:00 +16°C° 1.5 mm 11 m/s 751 mmHg 86%
    02:00 +16°C° 1.5 mm 11 m/s 750 mmHg 87%
    03:00 +16°C° 1.1 mm 9 m/s 750 mmHg 87%
    04:00 +15°C° 1.1 mm 8 m/s 750 mmHg 88%
    05:00 +15°C° 0 mm 5 m/s 749 mmHg 90%
    06:00 +15°C° 0.7 mm 5 m/s 749 mmHg 88%
    07:00 +15°C° 0.7 mm 4 m/s 749 mmHg 86%
    08:00 +17°C° 0.7 mm 4 m/s 749 mmHg 84%
    09:00 +18°C° 0.4 mm 4 m/s 749 mmHg 78%
    10:00 +18°C° 0.4 mm 4 m/s 749 mmHg 72%
    11:00 +19°C° 0.4 mm 4 m/s 749 mmHg 66%
    12:00 +19°C° 0.5 mm 5 m/s 749 mmHg 69%
    13:00 +17°C° 0.5 mm 5 m/s 749 mmHg 72%
    14:00 +17°C° 0.5 mm 5 m/s 748 mmHg 75%
    15:00 +16°C° 0.8 mm 5 m/s 749 mmHg 79%
    16:00 +15°C° 0.8 mm 6 m/s 749 mmHg 84%
    17:00 +14°C° 0.8 mm 6 m/s 749 mmHg 88%
    18:00 +14°C° 0.4 mm 6 m/s 749 mmHg 90%
    19:00 +13°C° 0.4 mm 6 m/s 750 mmHg 91%
    20:00 +13°C° 0.4 mm 6 m/s 750 mmHg 93%
    21:00 +13°C° 0.1 mm 6 m/s 750 mmHg 93%
    22:00 +13°C° 0.1 mm 6 m/s 750 mmHg 94%
    23:00 +13°C° 0.1 mm 6 m/s 750 mmHg 95%

    Amanhã, 19 Novembro, Segunda-feira

    Tempo Temperatura Precipitação Vento Pressão Humidade
    00:00 +13°C° 0.3 mm 6 m/s 750 mmHg 95%
    01:00 +13°C° 0.3 mm 6 m/s 750 mmHg 95%
    02:00 +13°C° 0.3 mm 6 m/s 750 mmHg 95%
    03:00 +13°C° 0.3 mm 6 m/s 751 mmHg 95%
    04:00 +13°C° 0.3 mm 6 m/s 751 mmHg 95%
    05:00 +13°C° 0.3 mm 5 m/s 751 mmHg 95%
    06:00 +13°C° 0.1 mm 5 m/s 752 mmHg 92%
    07:00 +14°C° 0.1 mm 5 m/s 752 mmHg 89%
    08:00 +14°C° 0.1 mm 5 m/s 752 mmHg 87%
    09:00 +15°C° 0 mm 5 m/s 753 mmHg 79%
    10:00 +16°C° 0 mm 5 m/s 753 mmHg 71%
    11:00 +17°C° 0 mm 5 m/s 753 mmHg 64%
    12:00 +19°C° 0 mm 5 m/s 752 mmHg 62%
    13:00 +19°C° 0 mm 5 m/s 752 mmHg 60%
    14:00 +19°C° 0 mm 6 m/s 752 mmHg 58%
    15:00 +17°C° 0.2 mm 5 m/s 752 mmHg 66%
    16:00 +15°C° 0.2 mm 5 m/s 752 mmHg 73%
    17:00 +14°C° 0.2 mm 5 m/s 752 mmHg 81%
    18:00 +14°C° 0.9 mm 5 m/s 752 mmHg 85%
    19:00 +13°C° 0.9 mm 4 m/s 752 mmHg 89%
    20:00 +13°C° 0.9 mm 4 m/s 752 mmHg 92%
    21:00 +13°C° 0.6 mm 3 m/s 752 mmHg 93%
    22:00 +12°C° 0.6 mm 3 m/s 752 mmHg 94%
    23:00 +12°C° 0.6 mm 3 m/s 751 mmHg 95%

    Depois de amanhã, 20 Novembro, Terça-feira

    Tempo Temperatura Precipitação Vento Pressão Humidade
    00:00 +12°C° 0.1 mm 3 m/s 751 mmHg 95%
    01:00 +12°C° 0.1 mm 4 m/s 751 mmHg 96%
    02:00 +12°C° 0.1 mm 4 m/s 751 mmHg 96%
    03:00 +10°C° 0 mm 5 m/s 752 mmHg 96%
    04:00 +10°C° 0 mm 5 m/s 752 mmHg 95%
    05:00 +10°C° 0 mm 6 m/s 752 mmHg 95%
    06:00 +11°C° 0 mm 6 m/s 752 mmHg 91%
    07:00 +13°C° 0 mm 6 m/s 753 mmHg 87%
    08:00 +14°C° 0 mm 7 m/s 754 mmHg 83%
    09:00 +15°C° 0.1 mm 7 m/s 754 mmHg 76%
    10:00 +16°C° 0.1 mm 8 m/s 754 mmHg 68%
    11:00 +17°C° 0.1 mm 8 m/s 755 mmHg 60%
    12:00 +17°C° 0.1 mm 9 m/s 754 mmHg 60%
    13:00 +17°C° 0.1 mm 9 m/s 754 mmHg 60%
    14:00 +17°C° 0.1 mm 9 m/s 754 mmHg 59%
    15:00 +16°C° 0.1 mm 9 m/s 754 mmHg 66%
    16:00 +15°C° 0.1 mm 9 m/s 755 mmHg 72%
    17:00 +13°C° 0.1 mm 8 m/s 755 mmHg 79%
    18:00 +12°C° 0.1 mm 8 m/s 755 mmHg 80%
    19:00 +12°C° 0.1 mm 8 m/s 756 mmHg 82%
    20:00 +12°C° 0.1 mm 8 m/s 756 mmHg 83%
    21:00 +12°C° 0.1 mm 8 m/s 756 mmHg 84%
    22:00 +12°C° 0.1 mm 8 m/s 756 mmHg 84%
    23:00 +12°C° 0.1 mm 7 m/s 756 mmHg 84%

    21 Novembro, Quarta-feira

    Tempo Temperatura Precipitação Vento Pressão Humidade
    00:00 +11°C° 0 mm 7 m/s 756 mmHg 85%
    01:00 +11°C° 0 mm 7 m/s 756 mmHg 87%
    02:00 +11°C° 0 mm 7 m/s 756 mmHg 88%
    03:00 +11°C° 0 mm 7 m/s 756 mmHg 89%
    04:00 +11°C° 0 mm 7 m/s 756 mmHg 89%
    05:00 +11°C° 0 mm 7 m/s 756 mmHg 90%
    06:00 +11°C° 0 mm 7 m/s 757 mmHg 86%
    07:00 +12°C° 0 mm 7 m/s 757 mmHg 81%
    08:00 +12°C° 0 mm 7 m/s 758 mmHg 77%
    09:00 +15°C° 0 mm 6 m/s 758 mmHg 70%
    10:00 +16°C° 0 mm 6 m/s 758 mmHg 62%
    11:00 +17°C° 0 mm 6 m/s 758 mmHg 55%
    12:00 +16°C° 0.1 mm 6 m/s 758 mmHg 56%
    13:00 +16°C° 0.1 mm 6 m/s 758 mmHg 57%
    14:00 +16°C° 0.1 mm 6 m/s 758 mmHg 58%
    15:00 +15°C° 0 mm 5 m/s 758 mmHg 65%
    16:00 +14°C° 0 mm 5 m/s 758 mmHg 71%
    17:00 +12°C° 0 mm 4 m/s 759 mmHg 78%
    18:00 +12°C° 0.2 mm 4 m/s 759 mmHg 81%
    19:00 +11°C° 0.2 mm 4 m/s 759 mmHg 84%
    20:00 +11°C° 0.2 mm 4 m/s 760 mmHg 87%
    21:00 +11°C° 0.4 mm 4 m/s 760 mmHg 88%
    22:00 +11°C° 0.4 mm 4 m/s 760 mmHg 89%
    23:00 +10°C° 0.4 mm 3 m/s 759 mmHg 90%

    22 Novembro, Quinta-feira

    Tempo Temperatura Precipitação Vento Pressão Humidade
    00:00 +10°C° 0.3 mm 3 m/s 759 mmHg 91%
    01:00 +10°C° 0.3 mm 3 m/s 759 mmHg 91%
    02:00 +10°C° 0.3 mm 3 m/s 759 mmHg 92%
    03:00 +10°C° 0.2 mm 2 m/s 759 mmHg 91%
    04:00 +10°C° 0.2 mm 2 m/s 759 mmHg 91%
    05:00 +11°C° 0.2 mm 1 m/s 759 mmHg 90%
    06:00 +12°C° 0.1 mm 1 m/s 759 mmHg 87%
    07:00 +13°C° 0.1 mm 1 m/s 760 mmHg 84%
    08:00 +14°C° 0.1 mm 1 m/s 760 mmHg 81%
    09:00 +15°C° 0.2 mm 2 m/s 760 mmHg 75%
    10:00 +16°C° 0.2 mm 3 m/s 760 mmHg 69%
    11:00 +17°C° 0.2 mm 3 m/s 760 mmHg 63%
    12:00 +17°C° 0.2 mm 4 m/s 760 mmHg 62%
    13:00 +17°C° 0.2 mm 4 m/s 759 mmHg 61%
    14:00 +18°C° 0.2 mm 4 m/s 759 mmHg 61%
    15:00 +15°C° 0.2 mm 4 m/s 759 mmHg 68%
    16:00 +14°C° 0.2 mm 4 m/s 760 mmHg 75%
    17:00 +12°C° 0.2 mm 4 m/s 760 mmHg 83%
    18:00 +12°C° 0.1 mm 4 m/s 760 mmHg 84%
    19:00 +12°C° 0.1 mm 3 m/s 761 mmHg 85%
    20:00 +12°C° 0.1 mm 3 m/s 761 mmHg 87%
    21:00 +12°C° 0.1 mm 3 m/s 761 mmHg 87%
    22:00 +12°C° 0.1 mm 3 m/s 761 mmHg 87%
    23:00 +13°C° 0.1 mm 2 m/s 761 mmHg 87%

    23 Novembro, Sexta-feira

    Tempo Temperatura Precipitação Vento Pressão Humidade
    00:00 +12°C° 0.2 mm 2 m/s 761 mmHg 88%
    01:00 +12°C° 0.2 mm 2 m/s 761 mmHg 88%
    02:00 +12°C° 0.2 mm 1 m/s 761 mmHg 89%
    03:00 +12°C° 0.1 mm 1 m/s 761 mmHg 89%
    04:00 +12°C° 0.1 mm 1 m/s 761 mmHg 89%
    05:00 +11°C° 0.1 mm 1 m/s 761 mmHg 89%
    06:00 +12°C° 0.1 mm 1 m/s 761 mmHg 87%
    07:00 +13°C° 0.1 mm 1 m/s 762 mmHg 84%
    08:00 +14°C° 0.1 mm 2 m/s 762 mmHg 81%
    09:00 +15°C° 0.1 mm 2 m/s 762 mmHg 75%
    10:00 +16°C° 0.1 mm 2 m/s 762 mmHg 69%
    11:00 +18°C° 0.1 mm 2 m/s 762 mmHg 63%
    12:00 +18°C° 0 mm 2 m/s 762 mmHg 62%
    13:00 +18°C° 0 mm 2 m/s 761 mmHg 61%
    14:00 +18°C° 0 mm 2 m/s 761 mmHg 60%
    15:00 +17°C° 0 mm 2 m/s 761 mmHg 67%
    16:00 +15°C° 0 mm 2 m/s 761 mmHg 73%
    17:00 +14°C° 0 mm 2 m/s 762 mmHg 80%
    18:00 +13°C° 0 mm 2 m/s 762 mmHg 83%
    19:00 +13°C° 0 mm 2 m/s 763 mmHg 85%
    20:00 +12°C° 0 mm 2 m/s 763 mmHg 88%
    21:00 +12°C° 0 mm 2 m/s 763 mmHg 89%
    22:00 +12°C° 0 mm 2 m/s 763 mmHg 90%
    23:00 +10°C° 0 mm 2 m/s 763 mmHg 90%
    Mostrar mais